| time (UTC) | temp F | wind direction | speed knots | gust knots | rain 1hr in | rain 24hr in | rain mn in | humidity % | barometer mb |
| 20260503050003 | 40 | 64 | 0.0 | 1.7 | 0.00 | 0.00 | 0.00 | 66 | 1015.1 |
| 20260503045003 | 40 | 69 | 0.0 | 2.6 | 0.00 | 0.00 | 0.00 | 66 | 1015.1 |
| 20260503044003 | 41 | 72 | 0.0 | 1.7 | 0.00 | 0.00 | 0.00 | 65 | 1015.0 |
| 20260503043003 | 41 | 103 | 0.0 | 1.7 | 0.00 | 0.00 | 0.00 | 65 | 1015.0 |
| 20260503042003 | 41 | 0 | 0.0 | 0.0 | 0.00 | 0.00 | 0.00 | 63 | 1014.9 |
| 20260503041024 | 41 | 97 | 0.0 | 2.6 | 0.00 | 0.00 | 0.00 | 63 | 1014.8 |
| 20260503040004 | 41 | 49 | 0.0 | 2.6 | 0.00 | 0.00 | 0.00 | 64 | 1014.9 |
| 20260503035003 | 41 | 77 | 0.0 | 7.0 | 0.00 | 0.00 | 0.00 | 64 | 1014.9 |
| 20260503034003 | 42 | 0 | 0.0 | 0.0 | 0.00 | 0.00 | 0.00 | 63 | 1014.8 |
| 20260503033003 | 42 | 5 | 0.0 | 2.6 | 0.00 | 0.00 | 0.00 | 62 | 1014.8 |
| 20260503032003 | 42 | 71 | 0.0 | 5.2 | 0.00 | 0.00 | 0.00 | 61 | 1014.7 |
| 20260503031003 | 42 | 90 | 0.0 | 4.3 | 0.00 | 0.00 | 0.00 | 61 | 1014.7 |
| 20260503030003 | 42 | 85 | 0.0 | 2.6 | 0.00 | 0.00 | 0.00 | 61 | 1014.8 |
| 20260503025003 | 42 | 71 | 0.0 | 2.6 | 0.00 | 0.00 | 0.00 | 61 | 1014.8 |
| 20260503024003 | 42 | 71 | 0.0 | 0.9 | 0.00 | 0.00 | 0.00 | 61 | 1014.7 |
| 20260503023003 | 43 | 71 | 0.0 | 1.7 | 0.00 | 0.00 | 0.00 | 61 | 1014.7 |
| 20260503022003 | 43 | 72 | 0.0 | 2.6 | 0.00 | 0.00 | 0.00 | 61 | 1014.7 |
| 20260503021003 | 43 | 14 | 0.0 | 0.9 | 0.00 | 0.00 | 0.00 | 61 | 1014.7 |
| 20260503020024 | 43 | 41 | 0.0 | 1.7 | 0.00 | 0.00 | 0.00 | 61 | 1014.7 |
| 20260503015003 | 43 | 136 | 0.0 | 3.5 | 0.00 | 0.00 | 0.00 | 61 | 1014.5 |
| 20260503014003 | 43 | 88 | 0.0 | 4.3 | 0.00 | 0.00 | 0.00 | 61 | 1014.4 |
| 20260503013003 | 43 | 88 | 0.0 | 0.9 | 0.00 | 0.00 | 0.00 | 61 | 1014.3 |
| 20260503012024 | 44 | 0 | 0.0 | 0.0 | 0.00 | 0.00 | 0.00 | 59 | 1013.9 |
| 20260503011024 | 44 | 0 | 0.0 | 0.0 | 0.00 | 0.00 | 0.00 | 58 | 1014.0 |
| 20260503010024 | 45 | 88 | 0.0 | 0.9 | 0.00 | 0.00 | 0.00 | 57 | 1014.0 |
| 20260503005024 | 45 | 101 | 0.0 | 4.3 | 0.00 | 0.00 | 0.00 | 56 | 1013.9 |
| 20260503004003 | 45 | 33 | 0.0 | 2.6 | 0.00 | 0.00 | 0.00 | 57 | 1013.9 |
| 20260503003003 | 46 | 7 | 0.0 | 3.5 | 0.00 | 0.00 | 0.00 | 57 | 1013.9 |
| 20260503002003 | 46 | 151 | 0.0 | 3.5 | 0.00 | 0.00 | 0.00 | 55 | 1013.6 |
| 20260503001003 | 46 | 65 | 0.0 | 4.3 | 0.00 | 0.00 | 0.00 | 55 | 1013.6 |
| 20260503000004 | 47 | 76 | 0.0 | 4.3 | 0.00 | 0.00 | 0.00 | 53 | 1013.5 |
| 20260502235003 | 48 | 70 | 0.9 | 2.6 | 0.00 | 0.00 | 0.00 | 51 | 1013.5 |
| 20260502234003 | 48 | 75 | 0.9 | 7.0 | 0.00 | 0.00 | 0.00 | 50 | 1013.4 |
| 20260502233003 | 48 | 63 | 0.0 | 7.8 | 0.00 | 0.00 | 0.00 | 49 | 1013.4 |
| 20260502232024 | 49 | 83 | 0.9 | 7.0 | 0.00 | 0.00 | 0.00 | 50 | 1013.3 |
| 20260502231003 | 50 | 67 | 0.9 | 9.6 | 0.00 | 0.00 | 0.00 | 49 | 1013.3 |
| 20260502230003 | 49 | 70 | 0.9 | 6.1 | 0.00 | 0.00 | 0.00 | 48 | 1013.2 |
| 20260502225003 | 49 | 45 | 0.9 | 6.1 | 0.00 | 0.00 | 0.00 | 50 | 1013.1 |
| 20260502224003 | 49 | 88 | 0.9 | 5.2 | 0.00 | 0.00 | 0.00 | 48 | 1013.0 |
| 20260502223003 | 50 | 59 | 0.9 | 7.0 | 0.00 | 0.00 | 0.00 | 48 | 1013.0 |
| 20260502222024 | 50 | 89 | 0.9 | 3.5 | 0.00 | 0.00 | 0.00 | 50 | 1013.0 |
| 20260502221003 | 50 | 50 | 0.9 | 5.2 | 0.00 | 0.00 | 0.00 | 48 | 1012.9 |
| 20260502220003 | 51 | 120 | 0.0 | 7.0 | 0.00 | 0.00 | 0.00 | 46 | 1012.9 |
| 20260502215003 | 51 | 87 | 0.9 | 4.3 | 0.00 | 0.00 | 0.00 | 47 | 1012.6 |
| 20260502214003 | 51 | 52 | 0.9 | 5.2 | 0.00 | 0.00 | 0.00 | 47 | 1012.6 |
| 20260502213003 | 51 | 66 | 0.9 | 7.8 | 0.00 | 0.00 | 0.00 | 49 | 1012.4 |
| 20260502212003 | 51 | 66 | 0.9 | 5.2 | 0.00 | 0.00 | 0.00 | 46 | 1012.3 |
| 20260502211003 | 53 | 69 | 1.7 | 7.0 | 0.00 | 0.00 | 0.00 | 45 | 1012.3 |
| 20260502210003 | 55 | 62 | 0.9 | 6.1 | 0.00 | 0.00 | 0.00 | 42 | 1012.3 |
| 20260502205003 | 55 | 21 | 1.7 | 5.2 | 0.00 | 0.00 | 0.00 | 45 | 1012.1 |
| 20260502204003 | 53 | 69 | 1.7 | 7.0 | 0.00 | 0.00 | 0.00 | 46 | 1012.3 |
| 20260502203003 | 53 | 53 | 0.9 | 7.0 | 0.00 | 0.00 | 0.00 | 47 | 1012.2 |
| 20260502202003 | 52 | 51 | 0.9 | 5.2 | 0.00 | 0.00 | 0.00 | 45 | 1012.3 |
| 20260502201003 | 53 | 59 | 1.7 | 7.0 | 0.00 | 0.00 | 0.00 | 46 | 1012.3 |
| 20260502200003 | 54 | 48 | 1.7 | 7.8 | 0.00 | 0.00 | 0.00 | 43 | 1012.4 |
| 20260502195003 | 53 | 72 | 0.9 | 8.7 | 0.00 | 0.00 | 0.00 | 45 | 1012.3 |
| 20260502194003 | 53 | 76 | 0.9 | 7.0 | 0.00 | 0.00 | 0.00 | 47 | 1012.4 |
| 20260502193003 | 54 | 71 | 1.7 | 5.2 | 0.00 | 0.00 | 0.00 | 45 | 1012.2 |
| 20260502192003 | 56 | 54 | 0.9 | 8.7 | 0.00 | 0.00 | 0.00 | 43 | 1012.0 |
| 20260502191003 | 55 | 77 | 1.7 | 7.8 | 0.00 | 0.00 | 0.00 | 44 | 1011.9 |
| 20260502190004 | 57 | 60 | 1.7 | 8.7 | 0.00 | 0.00 | 0.00 | 40 | 1012.0 |
| 20260502185003 | 56 | 47 | 0.9 | 6.1 | 0.00 | 0.00 | 0.00 | 50 | 1012.0 |
| 20260502184024 | 56 | 84 | 0.9 | 6.1 | 0.00 | 0.00 | 0.00 | 43 | 1012.2 |
| 20260502182003 | 57 | 76 | 0.9 | 5.2 | 0.00 | 0.00 | 0.00 | 41 | 1012.2 |
| 20260502181003 | 56 | 11 | 0.9 | 2.6 | 0.00 | 0.00 | 0.00 | 45 | 1012.2 |
| 20260502164003 | 52 | 75 | 0.9 | 4.3 | 0.00 | 0.00 | 0.00 | 43 | 1013.1 |
| 20260502163003 | 52 | 65 | 0.9 | 7.0 | 0.00 | 0.00 | 0.00 | 48 | 1013.2 |
| 20260502162003 | 52 | 54 | 0.0 | 3.5 | 0.00 | 0.00 | 0.00 | 50 | 1013.2 |
| 20260502161003 | 52 | 340 | 0.0 | 2.6 | 0.00 | 0.00 | 0.00 | 47 | 1013.5 |
| 20260502152024 | 50 | 27 | 0.9 | 2.6 | 0.00 | 0.00 | 0.00 | 49 | 1014.0 |
| 20260502151003 | 49 | 60 | 0.9 | 6.1 | 0.00 | 0.00 | 0.00 | 54 | 1014.0 |
| 20260502123028 | 42 | 121 | 0.0 | 2.6 | 0.00 | 0.00 | 0.00 | 62 | 1013.9 |
| 20260502122003 | 43 | 77 | 0.0 | 4.3 | 0.00 | 0.00 | 0.00 | 63 | 1014.0 |
| 20260502121003 | 43 | 83 | 0.0 | 1.7 | 0.00 | 0.00 | 0.00 | 65 | 1013.8 |
| 20260502115003 | 42 | 88 | 0.0 | 4.3 | 0.00 | 0.00 | 0.00 | 63 | 1014.0 |
| 20260502114009 | 42 | 131 | 0.0 | 0.9 | 0.00 | 0.00 | 0.00 | 61 | 1014.1 |
| 20260502113008 | 42 | 249 | 0.0 | 2.6 | 0.00 | 0.00 | 0.00 | 62 | 1013.8 |
| 20260502112009 | 42 | 79 | 0.0 | 0.9 | 0.00 | 0.00 | 0.00 | 61 | 1013.7 |
| 20260502111009 | 42 | 95 | 0.0 | 1.7 | 0.00 | 0.00 | 0.00 | 62 | 1013.6 |
| 20260502110008 | 42 | 0 | 0.0 | 0.0 | 0.00 | 0.00 | 0.00 | 62 | 1013.4 |
| 20260502105009 | 42 | 108 | 0.0 | 0.9 | 0.00 | 0.00 | 0.00 | 61 | 1013.3 |
| 20260502104008 | 42 | 100 | 0.0 | 1.7 | 0.00 | 0.00 | 0.00 | 61 | 1013.3 |
| 20260502103008 | 42 | 0 | 0.0 | 0.0 | 0.00 | 0.00 | 0.00 | 61 | 1013.5 |
| 20260502102030 | 43 | 79 | 0.0 | 1.7 | 0.00 | 0.00 | 0.00 | 61 | 1013.4 |
| 20260502101008 | 43 | 84 | 0.0 | 4.3 | 0.00 | 0.00 | 0.00 | 61 | 1013.6 |
| 20260502091024 | 45 | 0 | 0.0 | 0.0 | 0.00 | 0.00 | 0.00 | 69 | 1014.1 |
| 20260502071003 | 47 | 104 | 0.0 | 2.6 | 0.00 | 0.00 | 0.00 | 73 | 1013.1 |
| 20260502070003 | 47 | 64 | 0.0 | 2.6 | 0.00 | 0.00 | 0.00 | 72 | 1013.3 |
| 20260502065003 | 47 | 10 | 0.0 | 1.7 | 0.00 | 0.00 | 0.00 | 71 | 1013.4 |
| 20260502064024 | 48 | 87 | 0.0 | 2.6 | 0.00 | 0.00 | 0.00 | 71 | 1013.5 |
| 20260502063003 | 48 | 59 | 0.0 | 0.9 | 0.00 | 0.00 | 0.00 | 71 | 1013.6 |
| 20260502062003 | 48 | 59 | 0.0 | 0.9 | 0.00 | 0.00 | 0.00 | 71 | 1013.7 |
| 20260502061003 | 48 | 0 | 0.0 | 0.0 | 0.00 | 0.00 | 0.00 | 72 | 1013.9 |
| 20260502060003 | 48 | 59 | 0.0 | 0.9 | 0.00 | 0.00 | 0.00 | 71 | 1013.9 |
| 20260502055024 | 48 | 59 | 0.0 | 0.9 | 0.00 | 0.00 | 0.00 | 71 | 1013.9 |
| 20260502054003 | 48 | 61 | 0.0 | 0.9 | 0.00 | 0.00 | 0.00 | 71 | 1013.9 |
| 20260502053003 | 48 | 60 | 0.0 | 0.9 | 0.00 | 0.00 | 0.00 | 70 | 1014.0 |
| 20260502052003 | 49 | 61 | 0.0 | 0.9 | 0.00 | 0.00 | 0.00 | 70 | 1013.6 |
| 20260502051003 | 49 | 58 | 0.0 | 4.3 | 0.00 | 0.00 | 0.00 | 70 | 1013.6 |